Weather in Sosnowiec

Poland     50°17′06″N   19°08′08″E
temp.,
°C
wind,
m/s
gust,
m/s
humid.,
%
clouds,
%
prec.,
mm/h
press.,
hPa
HPBL,
m
7 may, fri
fri723:00+8ssw31071100 0.1 1008754
02:00+7ssw1490100 1.6 1007358
05:00+7sse2891100 2.2 1005777
08:00+8wsw5118595 2.8 10051166
11:00+11wsw7127488 0.8 10051299
14:00+11wnw61062100 0.9 10061298
17:00+10wnw7106694 0.3 10091344
20:00+6wnw51270100 0.4 10131055
8 may, sat
sat823:00+5wnw4108425 0.3 10151007
02:00+3w4108170 0.4 1017780
05:00+3w4118073 0.1 1019786
08:00+6w486725 0.1 1021974
11:00+9w5749100 0.2 10212037
14:00+11wnw463893 0.3 10202326
17:00+11sw344564 0.1 10201327
20:00+9nw115868 0.1 102011
9 may, sun
sun923:00+7se2365100 0.0 102258
02:00+5sse256919 0.0 1022105
05:00+5se257157 0.0 102299
08:00+10sse355222 0.0 1021242
11:00+16s464114 0.0 10201277
14:00+20ssw47345 0.0 10181751
17:00+20ssw46345 0.0 10171535
20:00+15ssw11545 0.0 101736
10 may, mon
mon1023:00+12ese11705 0.0 101713
02:00+9se22703 0.0 101751
05:00+8ese24740 0.0 101692
08:00+13se37530 0.0 1015250
11:00+21s35380 0.0 1015808
14:00+24s353296 0.0 10141799
17:00+24wsw443717 0.0 10141676
20:00+18ssw26590 0.0 1015188
11 may, tue
tue1123:00+15ese37700 0.0 1015151
02:00+14ese38750 0.0 1014165
05:00+13ese311760 0.0 1012215
08:00+17se410570 0.0 1012319
11:00+24s34394 0.0 1012867
14:00+27sse363137 0.0 10101748
17:00+27sse453499 0.0 10091746
20:00+21ese3765100 0.0 1009178